User: anonymous   Login
Location: Campillo
(40.8621°N, 4.2488°W)
Time: 16:26:06
(UTC+00:00)
Language:

Cosmos 1743 - Orbit

View from above orbital plane
View from above orbital plane
View from above satellite
View from above satellite

Ground track
Ground track

The orbit data is extracted from the following two-line orbital elements,

1 16719U 86034A   21210.82108084  .00000576  00000-0  28124-4 0  9991
2 16719  82.5536 317.9224 0013402 109.5199  10.7647 15.16119033923141
Epoch (UTC): 29 July 2021 19:42:21
Eccentricity: 0.0013402
inclination: 82.5536°
perigee height: 508 km
apogee height: 527 km
right ascension of ascending node: 317.9224°
argument of perigee: 109.5199°
revolutions per day: 15.16119033
mean anomaly at epoch: 10.7647°
orbit number at epoch: 92314

The dashed part of the orbit path shows where the satellite is in the earth's shadow,  

DLR